Weather History for Kirksville, MO

Change the Weather History Date:

Thursday, July 24, 2014

  Actual Average Record
Temperature  
Mean Temperature 69 °F 76 °F  
Max Temperature 81 °F 86 °F 110 °F (1934)
Min Temperature 56 °F 65 °F 53 °F (1957)
Degree Days  
Heating Degree Days 0 0  
Month to date heating degree days 6 0  
Since 1 June heating degree days 12 16  
Since 1 July heating degree days 6 0  
Cooling Degree Days 4 11  
Month to date cooling degree days 149 239  
Year to date cooling degree days 518 493  
Since 1 June cooling degree days 396 431  
Growing Degree Days 17 (Base 50)    
Moisture  
Dew Point 58 °F    
Average Humidity 71    
Maximum Humidity 93    
Minimum Humidity 48    
Precipitation  
Precipitation 0.00 in 0.16 in 7.32 in (2008)
Month to date precipitation 2.70 3.53  
Year to date precipitation 19.22 22.46  
Sea Level Pressure  
Sea Level Pressure 30.13 in    
Wind  
Wind Speed 5 mph (ESE)    
Max Wind Speed 16 mph    
Max Gust Speed 20 mph    
Visibility 9 miles    
Events      
T = Trace of Precipitation, MM = Missing Value Source: NWS Daily Summary

Daily Weather History Graph

Daily Weather History Graph

Search for Another Location

Airport:

Trip Planner

Search our weather history database for the weather conditions in past years. The results will help you decide how hot, cold, wet, or windy it might be!

Date:

Astronomy

Jul. 24, 2014 Rise Set
Actual Time 6:01 AM CDT 8:31 PM CDT
Civil Twilight 5:30 AM CDT 9:02 PM CDT
Nautical Twilight 4:51 AM CDT 9:41 PM CDT
Astronomical Twilight 4:08 AM CDT 10:24 PM CDT
Moon 4:09 AM CDT (7/24) 6:47 PM CDT (7/24)
Length of Visible Light 15h 32m
Length of Day
14h 30m
Waning Crescent, 5% of the Moon is Illuminated
Jul 24
Waning Crescent
Jul 26
New
Aug 3
First Quarter
Aug 10
Full
Aug 17
Last Quarter

Hourly Weather History & Observations

Time (CDT) Temp. Dew Point Humidity Pressure Visibility Wind Dir Wind Speed Gust Speed Precip Events Conditions
12:55 AM 60.1 °F 55.9 °F 86% 30.15 in 10.0 mi Calm Calm - N/A   Clear
1:55 AM 57.9 °F 55.9 °F 93% 30.15 in 10.0 mi Calm Calm - N/A   Clear
2:55 AM 59.0 °F 57.0 °F 93% 30.15 in 8.0 mi North 3.5 mph - N/A   Clear
3:55 AM 57.9 °F 55.9 °F 93% 30.14 in 10.0 mi Calm Calm - N/A   Clear
4:55 AM 55.9 °F 54.0 °F 93% 30.15 in 10.0 mi NNE 5.8 mph - N/A   Clear
5:55 AM 55.9 °F 54.0 °F 93% 30.16 in 10.0 mi Calm Calm - N/A   Clear
6:24 AM 57.0 °F 55.0 °F 93% 30.17 in 1.8 mi Calm Calm - N/A   Clear
6:33 AM 57.9 °F 55.9 °F 93% 30.17 in 3.0 mi Calm Calm - N/A   Clear
6:55 AM 60.1 °F 57.0 °F 90% 30.17 in 10.0 mi Calm Calm - N/A   Clear
7:55 AM 64.9 °F 61.0 °F 87% 30.18 in 10.0 mi East 5.8 mph - N/A   Clear
8:55 AM 70.0 °F 61.0 °F 73% 30.18 in 10.0 mi East 5.8 mph - N/A   Clear
9:55 AM 73.0 °F 60.1 °F 64% 30.18 in 10.0 mi East 5.8 mph - N/A   Clear
10:55 AM 73.9 °F 61.0 °F 64% 30.17 in 10.0 mi East 6.9 mph - N/A   Clear
11:55 AM 75.0 °F 61.0 °F 62% 30.19 in 10.0 mi Calm Calm - N/A   Partly Cloudy
12:55 PM 77.0 °F 60.1 °F 56% 30.17 in 10.0 mi Calm Calm - N/A   Scattered Clouds
1:55 PM 75.9 °F 59.0 °F 56% 30.15 in 10.0 mi ESE 4.6 mph - N/A   Mostly Cloudy
2:55 PM 75.9 °F 60.1 °F 58% 30.12 in 10.0 mi SSE 8.1 mph - N/A   Partly Cloudy
3:55 PM 78.1 °F 57.0 °F 48% 30.09 in 10.0 mi SE 9.2 mph - N/A   Clear
4:55 PM 78.1 °F 57.9 °F 50% 30.12 in 10.0 mi SE 5.8 mph - N/A   Mostly Cloudy
5:55 PM 79.0 °F 57.9 °F 48% 30.09 in 10.0 mi ESE 4.6 mph - N/A   Clear
6:55 PM 75.9 °F 60.1 °F 58% 30.08 in 10.0 mi Variable 3.5 mph - N/A   Clear
7:55 PM 72.0 °F 62.1 °F 71% 30.07 in 10.0 mi ESE 5.8 mph - N/A   Partly Cloudy
8:55 PM 68.0 °F 61.0 °F 78% 30.07 in 9.0 mi NE 5.8 mph - N/A   Clear
9:55 PM 64.0 °F 60.1 °F 87% 30.04 in 10.0 mi South 6.9 mph - N/A   Clear
10:55 PM 66.0 °F 57.9 °F 75% 29.99 in 10.0 mi South 9.2 mph - N/A   Clear
11:55 PM 64.0 °F 57.9 °F 80% 29.99 in 10.0 mi SSE 9.2 mph - N/A   Clear